Effective Sunday, March 17, 2024, the National Weather Service National Data Buoy Center will discontinue its Dial-A-Buoy Interactive Voice Response system. For more information, see Service Change Notice 24-06 (PDF).

Station NTBC1 - 9411340 - Santa Barbara, CA Image indicating link to RSS feed of recent meteorological observations for station NTBC1


Conditions at NTBC1 as of
(2:36 pm PST)
2236 GMT on 02/27/2024:
     

Click on the graph icon in the table below to see a time series plot of the last five days of that observation.

5-day plot - Wind Direction Wind Direction (WDIR):ESE ( 110 deg true )
5-day plot - Wind Speed Wind Speed (WSPD): 2.9 kts
5-day plot - Wind Gust Wind Gust (GST): 5.1 kts
5-day plot - Atmospheric Pressure Atmospheric Pressure (PRES):29.97 in
5-day plot - Air Temperature Air Temperature (ATMP): 59.7 °F
5-day plot - Wind Speed at 10 Meters Wind Speed at 10 meters (WSPD10M): 3.9 kts
5-day plot - Wind Speed at 20 Meters Wind Speed at 20 meters (WSPD20M): 3.9 kts
5-day plot -  Wind Speed, Wind Gust and Atmospheric Pressure Combined plot of Wind Speed, Gust, and Air Pressure
NOS Water Level Observation Network Water Level
Previous observations
TIME
(PST)
5-day plot - Wind Direction
WDIR
 
5-day plot - Wind Speed
WSPD
kts
5-day plot - Wind Gust
GST
kts
5-day plot - Wave Height
WVHT
ft
5-day plot - Dominant Wave Period
DPD
sec
5-day plot - Average Wave Period
APD
sec
5-day plot - Mean Wave Direction
MWD
 
5-day plot - Atmospheric Pressure
PRES
in
5-day plot - Pressure Tendency
PTDY
in
5-day plot - Air Temperature
ATMP
°F
5-day plot - Water Temperature
WTMP
°F
5-day plot - Dew Point
DEWP
°F
5-day plot - Salinity
SAL
psu
5-day plot - Visibility
VIS
nmi
5-day plot - Tide (above MLLW)
TIDE
ft
2024-02-27 02:30 pm E 2.9 4.1----29.97- 59.5-----
2024-02-27 02:24 pm E 4.1 5.1----29.97- 58.6-----
2024-02-27 02:18 pm E 4.1 5.1----29.97- 58.8-----
2024-02-27 02:12 pmESE 2.9 5.1----29.97- 59.2-----
2024-02-27 02:06 pm SE 4.1 5.1----29.97- 58.8-----
2024-02-27 02:00 pm SE 2.9 4.1----29.97-0.04 59.2-----
2024-02-27 01:54 pm SE 2.9 4.1----29.97- 59.5-----
2024-02-27 01:48 pm SE 2.9 4.1----29.98- 58.6-----
2024-02-27 01:42 pm S 4.1 5.1----29.98- 58.1-----
2024-02-27 01:36 pm SE 2.9 4.1----29.98- 58.5-----
2024-02-27 01:30 pm S 4.1 5.1----29.98- 59.0-----
2024-02-27 01:24 pmSSE 2.9 5.1----29.98- 59.0-----
2024-02-27 01:18 pmSSE 2.9 5.1----29.98- 58.8-----
2024-02-27 01:12 pm S 4.1 5.1----29.98- 58.6-----
2024-02-27 01:06 pmSSE 2.9 4.1----29.98- 59.0-----
2024-02-27 01:00 pm S 1.9 4.1----29.98-0.03 59.4-----
2024-02-27 12:54 pmSSE 2.9 5.1----29.99- 58.5-----
2024-02-27 12:48 pmSSE 2.9 6.0----29.99- 58.3-----
2024-02-27 12:42 pmSSE 6.0 6.0----30.00- 57.7-----
2024-02-27 12:36 pm S 4.1 5.1----29.99- 58.8-----
2024-02-27 12:30 pm S 4.1 7.0----30.00- 58.5-----
2024-02-27 12:24 pm S 4.1 6.0----30.00- 58.5-----
2024-02-27 12:18 pm S 5.1 6.0----30.00- 58.3-----
2024-02-27 12:12 pm S 2.9 6.0----30.00- 59.2-----
2024-02-27 12:06 pm S 5.1 7.0----30.01- 57.7-----
2024-02-27 12:00 pm S 5.1 6.0----30.01+0.00 57.9-----
2024-02-27 11:54 am S 6.0 7.0----30.01- 57.7-----
2024-02-27 11:48 am S 5.1 7.0----30.01- 58.1-----
2024-02-27 11:42 am S 5.1 6.0----30.01- 58.5-----
2024-02-27 11:36 am S 4.1 5.1----30.01- 58.5-----
2024-02-27 11:30 am S 2.9 5.1----30.01- 59.2-----
2024-02-27 11:24 am S 4.1 5.1----30.01- 58.3-----
2024-02-27 11:18 amSSW 4.1 6.0----30.02- 58.5-----
2024-02-27 11:12 am S 6.0 7.0----30.02- 57.7-----
2024-02-27 11:06 am S 5.1 8.9----30.02- 57.9-----
2024-02-27 11:00 am S 8.0 9.9----30.02+0.01 57.4-----
2024-02-27 10:54 amSSW 8.0 8.9----30.01- 57.6-----
2024-02-27 10:48 amSSW 8.9 11.1----30.01- 57.4-----
2024-02-27 10:42 amSSW 9.9 11.1----30.01- 57.4-----
2024-02-27 10:36 amSSW 11.1 12.0----30.01- 57.2-----
2024-02-27 10:30 am SW 11.1 12.0----30.01- 57.0-----
2024-02-27 10:24 am SW 9.9 11.1----30.01- 57.2-----
2024-02-27 10:18 am SW 8.9 9.9----30.01- 57.2-----
2024-02-27 10:12 am SW 8.9 9.9----30.01- 57.2-----
2024-02-27 10:06 am SW 8.9 8.9----30.01- 57.2-----
2024-02-27 10:00 amSSW 8.0 8.9----30.01+0.01 57.0-----
2024-02-27 09:54 amSSW 7.0 8.0----30.01- 57.2-----
2024-02-27 09:48 amSSW 7.0 8.0----30.01- 57.0-----
2024-02-27 09:42 amSSW 7.0 8.0----30.01- 57.2-----
2024-02-27 09:36 amSSW 7.0 7.0----30.01- 57.0-----
2024-02-27 09:30 am SW 6.0 8.0----30.01- 57.2-----
2024-02-27 09:24 am SW 7.0 8.0----30.01- 57.0-----
2024-02-27 09:18 am SW 6.0 7.0----30.01- 57.0-----
2024-02-27 09:12 amSSW 5.1 6.0----30.01- 57.2-----
2024-02-27 09:06 am S 2.9 4.1----30.01- 57.6-----
2024-02-27 09:00 amSSW 1.9 2.9----30.01+0.02 57.7-----
2024-02-27 08:54 am S 1.0 1.9----30.01- 58.6-----
2024-02-27 08:48 am SE 1.0 1.9----30.01- 58.8-----
2024-02-27 08:42 am SE 1.9 1.9----30.01- 58.8-----
2024-02-27 08:36 am- 0.0 1.9----30.01- 59.4-----
2024-02-27 08:30 am- 0.0 1.9----30.01- 58.3-----
2024-02-27 08:24 am NE 1.0 1.9----30.01- 58.5-----
2024-02-27 08:18 am NE 1.0 1.9----30.01- 58.1-----
2024-02-27 08:12 am N 1.0 1.9----30.01- 57.0-----
2024-02-27 08:06 am N 1.0 1.9----30.01- 56.7-----
2024-02-27 08:00 am N 1.0 1.0----30.01+0.03 56.5-----
2024-02-27 07:54 am- 0.0 1.0----30.01- 55.8-----
2024-02-27 07:48 am NW 1.9 2.9----30.01- 54.9-----
2024-02-27 07:42 amNNW 2.9 2.9----30.01- 54.1-----
2024-02-27 07:36 am NW 1.9 1.9----30.00- 54.7-----
2024-02-27 07:30 am NW 1.9 2.9----30.00- 54.5-----
2024-02-27 07:24 am N 1.9 2.9----30.00- 54.0-----
2024-02-27 07:18 amNNW 2.9 2.9----30.00- 53.6-----
2024-02-27 07:12 amNNW 2.9 4.1----30.00- 53.2-----
2024-02-27 07:06 am N 2.9 4.1----29.99- 52.9-----
2024-02-27 07:00 am N 2.9 5.1----30.00+0.04 52.3-----
2024-02-27 06:54 am N 2.9 4.1----30.00- 51.8-----
2024-02-27 06:48 am N 2.9 4.1----29.99- 51.8-----
2024-02-27 06:42 am N 2.9 4.1----29.99- 52.0-----
2024-02-27 06:36 am N 2.9 4.1----29.99- 51.4-----
2024-02-27 06:30 am N 1.9 4.1----29.99- 51.6-----
2024-02-27 06:24 amNNW 2.9 4.1----29.99- 52.0-----
2024-02-27 06:18 am N 1.9 4.1----29.99- 51.6-----
2024-02-27 06:12 am N 2.9 4.1----29.99- 52.2-----
2024-02-27 06:06 am N 2.9 4.1----29.98- 52.3-----
2024-02-27 06:00 am N 1.9 4.1----29.98+0.01 52.2-----
2024-02-27 05:54 am N 4.1 4.1----29.98- 52.5-----
2024-02-27 05:48 am N 2.9 4.1----29.98- 52.3-----
2024-02-27 05:42 am N 2.9 4.1----29.98- 52.7-----
2024-02-27 05:36 am N 4.1 5.1----29.98- 52.7-----
2024-02-27 05:30 am N 4.1 6.0----29.98- 52.7-----
2024-02-27 05:24 am N 5.1 5.1----29.98- 52.3-----
2024-02-27 05:18 am N 4.1 5.1----29.98- 52.3-----
2024-02-27 05:12 am N 4.1 5.1----29.98- 52.5-----
2024-02-27 05:06 am N 4.1 5.1----29.98- 53.1-----
2024-02-27 05:00 am N 4.1 4.1----29.98+0.00 52.7-----
2024-02-27 04:54 am N 4.1 4.1----29.98- 52.7-----
2024-02-27 04:48 am N 2.9 4.1----29.97- 52.5-----
2024-02-27 04:42 am N 2.9 4.1----29.97- 52.0-----
2024-02-27 04:36 am N 4.1 5.1----29.97- 52.0-----
2024-02-27 04:30 am N 4.1 5.1----29.97- 52.0-----
2024-02-27 04:24 am N 4.1 4.1----29.97- 52.5-----
2024-02-27 04:18 am N 2.9 4.1----29.96- 53.1-----
2024-02-27 04:12 am N 2.9 4.1----29.96- 53.1-----
2024-02-27 04:06 am N 2.9 4.1----29.96- 52.7-----
2024-02-27 04:00 am N 1.9 4.1----29.96-0.02 52.7-----
2024-02-27 03:54 am N 2.9 4.1----29.96- 52.5-----
2024-02-27 03:48 am N 2.9 4.1----29.96- 52.9-----
2024-02-27 03:42 am N 2.9 4.1----29.96- 52.3-----
2024-02-27 03:36 am N 4.1 5.1----29.96- 52.5-----
2024-02-27 03:30 am N 2.9 5.1----29.96- 52.0-----
2024-02-27 03:24 am N 2.9 5.1----29.97- 52.0-----
2024-02-27 03:18 am N 4.1 5.1----29.96- 51.8-----
2024-02-27 03:12 am N 4.1 5.1----29.97- 51.6-----
2024-02-27 03:06 am N 5.1 5.1----29.97- 51.1-----
2024-02-27 03:00 am N 4.1 4.1----29.97+0.00 50.9-----
2024-02-27 02:54 am N 4.1 5.1----29.97- 51.3-----
2024-02-27 02:48 am N 4.1 5.1----29.97- 51.1-----
2024-02-27 02:42 am N 5.1 5.1----29.97- 51.4-----
2024-02-27 02:36 am N 2.9 4.1----29.97- 51.6-----
2024-02-27 02:30 am N 2.9 4.1----29.98- 51.3-----
2024-02-27 02:24 am N 2.9 4.1----29.98- 51.1-----
2024-02-27 02:18 am N 2.9 4.1----29.98- 50.9-----
2024-02-27 02:12 am N 2.9 4.1----29.98- 50.7-----
2024-02-27 02:06 am N 4.1 5.1----29.98- 50.4-----
2024-02-27 02:00 am N 2.9 4.1----29.98+0.00 50.5-----
2024-02-27 01:54 am N 4.1 4.1----29.98- 50.9-----
2024-02-27 01:48 am N 1.9 2.9----29.98- 51.8-----
2024-02-27 01:42 am N 1.9 1.9----29.98- 52.0-----
2024-02-27 01:36 amNNW 1.9 2.9----29.98- 51.8-----
2024-02-27 01:30 amNNW 1.9 1.9----29.98- 52.3-----
2024-02-27 01:24 amNNW 2.9 4.1----29.99- 52.2-----
2024-02-27 01:18 amNNW 2.9 4.1----29.98- 51.3-----
2024-02-27 01:12 am N 2.9 4.1----29.98- 51.8-----
2024-02-27 01:06 am N 4.1 5.1----29.98- 52.2-----
2024-02-27 01:00 am N 4.1 5.1----29.98+0.00 52.0-----
2024-02-27 12:54 am N 2.9 2.9----29.98- 52.0-----
2024-02-27 12:48 am N 1.9 2.9----29.98- 52.2-----
2024-02-27 12:42 am N 1.9 2.9----29.98- 52.0-----
2024-02-27 12:36 am N 1.9 2.9----29.98- 51.4-----
2024-02-27 12:30 am N 2.9 4.1----29.98- 51.6-----
2024-02-27 12:24 am N 2.9 2.9----29.98- 51.6-----
2024-02-27 12:18 amNNW 4.1 4.1----29.98- 52.0-----
2024-02-27 12:12 am N 4.1 4.1----29.98- 51.6-----
2024-02-27 12:06 am NE 1.0 1.9----29.98- 52.2-----
2024-02-27 12:00 am- 0.0 1.0----29.98+0.00 52.2-----
2024-02-26 11:54 pm- 0.0 1.9----29.98- 52.0-----
2024-02-26 11:48 pm N 1.9 2.9----29.98- 52.2-----
2024-02-26 11:42 pm N 1.9 2.9----29.98- 52.3-----
2024-02-26 11:36 pmNNE 1.9 2.9----29.98- 52.3-----
2024-02-26 11:30 pm N 1.0 1.9----29.98- 52.5-----
2024-02-26 11:24 pmNNW 1.9 2.9----29.98- 52.7-----
2024-02-26 11:18 pmNNW 1.9 2.9----29.98- 52.7-----
2024-02-26 11:12 pmNNW 1.9 2.9----29.98- 52.7-----
2024-02-26 11:06 pmNNW 2.9 4.1----29.98- 52.5-----
2024-02-26 11:00 pmNNW 2.9 2.9----29.98+0.00 52.7-----
2024-02-26 10:54 pmNNW 1.9 1.9----29.98- 53.1-----
2024-02-26 10:48 pmNNW 2.9 4.1----29.98- 53.1-----
2024-02-26 10:42 pm N 1.9 2.9----29.98- 52.9-----
2024-02-26 10:36 pm N 1.9 2.9----29.98- 53.2-----
2024-02-26 10:30 pm N 1.9 1.9----29.98- 54.0-----
2024-02-26 10:24 pm N 1.9 1.9----29.98- 54.3-----
2024-02-26 10:18 pmNNW 1.9 1.9----29.98- 54.5-----
2024-02-26 10:12 pmNNW 1.9 2.9----29.98- 54.3-----
2024-02-26 10:06 pm N 1.9 1.9----29.98- 54.1-----
2024-02-26 10:00 pm N 2.9 2.9----29.98+0.00 54.1-----
2024-02-26 09:54 pm N 1.9 2.9----29.98- 54.3-----
2024-02-26 09:48 pm N 2.9 4.1----29.98- 54.1-----
2024-02-26 09:42 pmNNE 2.9 2.9----29.98- 54.7-----
2024-02-26 09:36 pm N 1.9 1.9----29.98- 55.0-----
2024-02-26 09:30 pm- 0.0 1.0----29.98- 55.2-----
2024-02-26 09:24 pm- 0.0 1.0----29.98- 55.2-----
2024-02-26 09:18 pm- 0.0 0.0----29.98- 55.4-----
2024-02-26 09:12 pm- 0.0 0.0----29.98- 55.6-----
2024-02-26 09:06 pm- 0.0 1.0----29.98- 55.6-----
2024-02-26 09:00 pm N 1.0 2.9----29.98+0.00 55.8-----
2024-02-26 08:54 pmNNW 2.9 2.9----29.98- 55.8-----
2024-02-26 08:48 pm N 2.9 4.1----29.98- 55.8-----
2024-02-26 08:42 pmNNW 2.9 2.9----29.98- 55.9-----
2024-02-26 08:36 pm NW 1.0 1.9----29.98- 55.9-----
2024-02-26 08:30 pm NW 1.0 1.9----29.98- 55.9-----
2024-02-26 08:24 pm NW 1.0 1.9----29.98- 55.9-----
2024-02-26 08:18 pm- 0.0 1.9----29.98- 55.9-----
2024-02-26 08:12 pmNNW 1.0 2.9----29.98- 56.1-----
2024-02-26 08:06 pm W 1.9 2.9----29.98- 56.5-----
2024-02-26 08:00 pm W 2.9 4.1----29.98+0.00 56.5-----
2024-02-26 07:54 pmWSW 2.9 4.1----29.98- 56.7-----
2024-02-26 07:48 pmWSW 2.9 4.1----29.98- 56.8-----
2024-02-26 07:42 pmWSW 2.9 5.1----29.98- 56.8-----
2024-02-26 07:36 pmWSW 1.9 5.1----29.98- 57.0-----
2024-02-26 07:30 pmWSW 2.9 4.1----29.98- 57.2-----
2024-02-26 07:24 pm W 2.9 5.1----29.98- 57.2-----
2024-02-26 07:18 pmWSW 4.1 5.1----29.98- 57.2-----
2024-02-26 07:12 pmWSW 2.9 5.1----29.98- 57.2-----
2024-02-26 07:06 pmWSW 2.9 6.0----29.98- 57.2-----
2024-02-26 07:00 pmWSW 4.1 5.1----29.98- 57.2-----
2024-02-26 06:54 pmWSW 4.1 5.1----29.98- 57.2-----
2024-02-26 06:48 pm SW 5.1 6.0----29.98- 57.2-----
2024-02-26 06:42 pm SW 4.1 5.1----29.97- 57.2-----
2024-02-26 06:36 pmWSW 4.1 5.1----29.97-------
2024-02-26 06:30 pmWSW 2.9 5.1----29.97-------
2024-02-26 06:24 pm SW 2.9 4.1----29.97-------
2024-02-26 06:18 pm W 2.9 4.1----29.97-------
2024-02-26 06:12 pm W 2.9 4.1----29.97-------
2024-02-26 06:06 pm W 2.9 4.1----29.97-------
2024-02-26 06:00 pm W 2.9 2.9----29.98+0.00------
2024-02-26 05:54 pm W 1.9 2.9----29.98-------
2024-02-26 05:48 pmWSW 1.9 4.1----29.98-------
2024-02-26 05:42 pm W 2.9 4.1----29.98-------
2024-02-26 05:36 pmWSW 2.9 2.9----29.98-------
2024-02-26 05:30 pm SW 1.0 1.9----29.98-------
2024-02-26 05:24 pmSSW 1.9 2.9----29.98-------
2024-02-26 05:18 pmWSW 1.9 2.9----29.98-------
2024-02-26 05:12 pm SW 1.9 2.9----29.98-------
2024-02-26 05:06 pm SW 1.9 2.9----29.98-------
2024-02-26 05:00 pm SW 1.9 2.9----29.98+0.00------
2024-02-26 04:54 pmSSW 1.9 5.1----29.98-------
2024-02-26 04:48 pmSSW 5.1 7.0----29.98-------
2024-02-26 04:42 pmSSW 6.0 7.0----29.98-------
2024-02-26 04:36 pm SW 4.1 5.1------ 57.9-----
2024-02-26 04:30 pm SW 4.1 6.0------ 57.7-----
2024-02-26 04:24 pmSSW 5.1 5.1------ 57.7-----
2024-02-26 04:18 pm S 2.9 4.1------ 57.7-----
2024-02-26 04:12 pmSSW 2.9 5.1------ 57.7-----
2024-02-26 04:06 pm S 1.9 2.9------ 57.9-----
2024-02-26 04:00 pmSSW 2.9 2.9------ 57.7-----
2024-02-26 03:54 pm- 0.0 4.1------ 57.9-----